owner,sensor,date,latitude,longitude,vertical_datum,sea_water_temperature,qcFlag 
TABS,ioos:station:wmo:42048:1,2017-05-09T01:00:00Z,27.9396,-96.8429,-2.0,24.58,11111222 
TABS,ioos:station:wmo:42048:1,2017-05-09T01:30:00Z,27.9396,-96.8429,-2.0,24.57,11111222 
TABS,ioos:station:wmo:42048:1,2017-05-09T02:00:00Z,27.9396,-96.8429,-2.0,24.58,11111222 
TABS,ioos:station:wmo:42048:1,2017-05-18T14:30:00Z,27.9396,-96.8429,-2.0,25.65,11111222 
TABS,ioos:station:wmo:42048:1,2017-05-18T15:00:00Z,27.9396,-96.8429,-2.0,25.65,11111222 
TABS,ioos:station:wmo:42048:1,2017-05-18T15:30:00Z,27.9396,-96.8429,-2.0,25.69,11111222 
TABS,ioos:station:wmo:42048:1,2017-05-18T16:00:00Z,27.9396,-96.8429,-2.0,25.72,11111222 
TABS,ioos:station:wmo:42048:1,2017-05-18T16:30:00Z,27.9396,-96.8429,-2.0,25.75,11111222 
TABS,ioos:station:wmo:42048:1,2017-05-18T17:00:00Z,27.9396,-96.8429,-2.0,25.76,11111222 
TABS,ioos:station:wmo:42048:1,2017-05-18T17:30:00Z,27.9396,-96.8429,-2.0,25.79,11111222 
TABS,ioos:station:wmo:42048:1,2017-05-18T18:00:00Z,27.9396,-96.8429,-2.0,25.82,11111222 
TABS,ioos:station:wmo:42048:1,2017-05-19T21:30:00Z,27.9396,-96.8429,-2.0,26.26,11111222 
TABS,ioos:station:wmo:42048:1,2017-05-19T22:00:00Z,27.9396,-96.8429,-2.0,26.31,11111222 
TABS,ioos:station:wmo:42048:1,2017-05-19T22:30:00Z,27.9396,-96.8429,-2.0,26.38,11111222 
TABS,ioos:station:wmo:42048:1,2017-05-19T23:00:00Z,27.9396,-96.8429,-2.0,26.32,11111222 
TABS,ioos:station:wmo:42048:1,2017-05-19T23:30:00Z,27.9396,-96.8429,-2.0,26.19,11111222 
TABS,ioos:station:wmo:42048:1,2017-05-20T00:00:00Z,27.9396,-96.8429,-2.0,26.13,11111222 
TABS,ioos:station:wmo:42048:1,2017-05-20T00:30:00Z,27.9396,-96.8429,-2.0,26.09,11111222 
TABS,ioos:station:wmo:42048:1,2017-05-20T01:00:00Z,27.9396,-96.8429,-2.0,26.1,11111222 
TABS,ioos:station:wmo:42048:1,2017-05-20T01:30:00Z,27.9396,-96.8429,-2.0,26.17,11111222 
TABS,ioos:station:wmo:42048:1,2017-05-20T02:00:00Z,27.9396,-96.8429,-2.0,26.04,11111222 
TABS,ioos:station:wmo:42048:1,2017-05-20T02:30:00Z,27.9396,-96.8429,-2.0,26.05,11111222 
TABS,ioos:station:wmo:42048:1,2017-05-20T03:00:00Z,27.9396,-96.8429,-2.0,26.08,11111222 
TABS,ioos:station:wmo:42048:1,2017-05-20T03:30:00Z,27.9396,-96.8429,-2.0,26.08,11111222 
TABS,ioos:station:wmo:42048:1,2017-05-20T04:00:00Z,27.9396,-96.8429,-2.0,26.1,11111222 
TABS,ioos:station:wmo:42048:1,2017-05-20T04:30:00Z,27.9396,-96.8429,-2.0,26.14,11111222 
TABS,ioos:station:wmo:42048:1,2017-05-20T05:00:00Z,27.9396,-96.8429,-2.0,26.07,11111222 
TABS,ioos:station:wmo:42048:1,2017-05-20T05:30:00Z,27.9396,-96.8429,-2.0,26.11,11111222 
TABS,ioos:station:wmo:42048:1,2017-05-20T06:00:00Z,27.9396,-96.8429,-2.0,26.11,11111222 
TABS,ioos:station:wmo:42048:1,2017-05-20T08:30:00Z,27.9396,-96.8429,-2.0,26.17,11111222 
TABS,ioos:station:wmo:42048:1,2017-05-20T09:00:00Z,27.9396,-96.8429,-2.0,26.18,11111222 
TABS,ioos:station:wmo:42048:1,2017-05-20T09:30:00Z,27.9396,-96.8429,-2.0,26.09,11111222 
TABS,ioos:station:wmo:42048:1,2017-05-20T10:00:00Z,27.9396,-96.8429,-2.0,26.13,11111222 
TABS,ioos:station:wmo:42048:1,2017-05-20T10:30:00Z,27.9396,-96.8429,-2.0,26.06,11111222 
TABS,ioos:station:wmo:42048:1,2017-05-20T11:00:00Z,27.9396,-96.8429,-2.0,25.94,11111222 
TABS,ioos:station:wmo:42048:1,2017-05-20T11:30:00Z,27.9396,-96.8429,-2.0,25.94,11111222 
TABS,ioos:station:wmo:42048:1,2017-05-20T12:00:00Z,27.9396,-96.8429,-2.0,25.88,11111222 
TABS,ioos:station:wmo:42048:1,2017-05-20T12:30:00Z,27.9396,-96.8429,-2.0,25.85,11111222 
TABS,ioos:station:wmo:42048:1,2017-05-20T13:00:00Z,27.9396,-96.8429,-2.0,25.83,11111222 
TABS,ioos:station:wmo:42048:1,2017-05-20T13:30:00Z,27.9396,-96.8429,-2.0,25.86,11111222 
TABS,ioos:station:wmo:42048:1,2017-05-20T14:00:00Z,27.9396,-96.8429,-2.0,25.86,11111222 
TABS,ioos:station:wmo:42048:1,2017-05-20T14:30:00Z,27.9396,-96.8429,-2.0,25.9,11111222 
TABS,ioos:station:wmo:42048:1,2017-05-20T15:00:00Z,27.9396,-96.8429,-2.0,25.93,11111222 
TABS,ioos:station:wmo:42048:1,2017-05-20T15:30:00Z,27.9396,-96.8429,-2.0,25.99,11111222 
TABS,ioos:station:wmo:42048:1,2017-05-20T16:00:00Z,27.9396,-96.8429,-2.0,26.04,11111222 
TABS,ioos:station:wmo:42048:1,2017-05-20T16:30:00Z,27.9396,-96.8429,-2.0,26.13,11111222 
TABS,ioos:station:wmo:42048:1,2017-05-20T17:00:00Z,27.9396,-96.8429,-2.0,26.22,11111222 
TABS,ioos:station:wmo:42048:1,2017-05-20T17:30:00Z,27.9396,-96.8429,-2.0,26.44,11111222 
TABS,ioos:station:wmo:42048:1,2017-05-20T18:00:00Z,27.9396,-96.8429,-2.0,26.51,11111222 
TABS,ioos:station:wmo:42048:1,2017-05-20T18:30:00Z,27.9396,-96.8429,-2.0,26.4,11111222 
TABS,ioos:station:wmo:42048:1,2017-05-20T19:00:00Z,27.9396,-96.8429,-2.0,26.37,11111222 
TABS,ioos:station:wmo:42048:1,2017-05-20T19:30:00Z,27.9396,-96.8429,-2.0,26.36,11111222 
TABS,ioos:station:wmo:42048:1,2017-05-20T20:00:00Z,27.9396,-96.8429,-2.0,26.26,11111222 
TABS,ioos:station:wmo:42048:1,2017-05-20T20:30:00Z,27.9396,-96.8429,-2.0,26.36,11111222 
TABS,ioos:station:wmo:42048:1,2017-05-20T21:00:00Z,27.9396,-96.8429,-2.0,26.45,11111222 
TABS,ioos:station:wmo:42048:1,2017-05-20T21:30:00Z,27.9396,-96.8429,-2.0,26.6,11111222 
TABS,ioos:station:wmo:42048:1,2017-05-20T22:00:00Z,27.9396,-96.8429,-2.0,26.68,11111222 
TABS,ioos:station:wmo:42048:1,2017-05-20T22:30:00Z,27.9396,-96.8429,-2.0,26.76,11111222 
TABS,ioos:station:wmo:42048:1,2017-05-20T23:00:00Z,27.9396,-96.8429,-2.0,26.76,11111222 
TABS,ioos:station:wmo:42048:1,2017-05-20T23:30:00Z,27.9396,-96.8429,-2.0,26.63,11111222 
TABS,ioos:station:wmo:42048:1,2017-05-21T00:00:00Z,27.9396,-96.8429,-2.0,26.63,11111222 
TABS,ioos:station:wmo:42048:1,2017-05-21T00:30:00Z,27.9396,-96.8429,-2.0,26.53,11111222 
TABS,ioos:station:wmo:42048:1,2017-05-21T01:00:00Z,27.9396,-96.8429,-2.0,26.41,11111222 
TABS,ioos:station:wmo:42048:1,2017-05-21T01:30:00Z,27.9396,-96.8429,-2.0,26.34,11111222 
TABS,ioos:station:wmo:42048:1,2017-05-21T02:00:00Z,27.9396,-96.8429,-2.0,26.37,11111222 
TABS,ioos:station:wmo:42048:1,2017-05-21T02:30:00Z,27.9396,-96.8429,-2.0,26.43,11111222 
TABS,ioos:station:wmo:42048:1,2017-05-21T03:00:00Z,27.9396,-96.8429,-2.0,26.29,11111222 
TABS,ioos:station:wmo:42048:1,2017-05-21T03:30:00Z,27.9396,-96.8429,-2.0,26.2,11111222 
TABS,ioos:station:wmo:42048:1,2017-05-21T04:00:00Z,27.9396,-96.8429,-2.0,26.15,11111222 
TABS,ioos:station:wmo:42048:1,2017-05-21T04:30:00Z,27.9396,-96.8429,-2.0,26.15,11111222 
TABS,ioos:station:wmo:42048:1,2017-05-21T05:00:00Z,27.9396,-96.8429,-2.0,26.12,11111222 
TABS,ioos:station:wmo:42048:1,2017-05-21T05:30:00Z,27.9396,-96.8429,-2.0,26.04,11111222 
TABS,ioos:station:wmo:42048:1,2017-05-21T06:00:00Z,27.9396,-96.8429,-2.0,26.06,11111222 
TABS,ioos:station:wmo:42048:1,2017-05-21T06:30:00Z,27.9396,-96.8429,-2.0,26.28,11111222 
TABS,ioos:station:wmo:42048:1,2017-05-21T07:00:00Z,27.9396,-96.8429,-2.0,26.33,11111222 
TABS,ioos:station:wmo:42048:1,2017-05-21T07:30:00Z,27.9396,-96.8429,-2.0,26.38,11111222 
TABS,ioos:station:wmo:42048:1,2017-05-21T08:00:00Z,27.9396,-96.8429,-2.0,26.33,11111222 
TABS,ioos:station:wmo:42048:1,2017-05-21T08:30:00Z,27.9396,-96.8429,-2.0,26.17,11111222 
TABS,ioos:station:wmo:42048:1,2017-05-21T09:00:00Z,27.9396,-96.8429,-2.0,26.07,11111222 
TABS,ioos:station:wmo:42048:1,2017-05-21T09:30:00Z,27.9396,-96.8429,-2.0,26.22,11111222 
TABS,ioos:station:wmo:42048:1,2017-05-21T10:00:00Z,27.9396,-96.8429,-2.0,26.13,11111222 
TABS,ioos:station:wmo:42048:1,2017-05-21T10:30:00Z,27.9396,-96.8429,-2.0,26.2,11111222 
TABS,ioos:station:wmo:42048:1,2017-05-21T11:00:00Z,27.9396,-96.8429,-2.0,26.24,11111222 
TABS,ioos:station:wmo:42048:1,2017-05-21T11:30:00Z,27.9396,-96.8429,-2.0,26.29,11111222 
TABS,ioos:station:wmo:42048:1,2017-05-21T12:00:00Z,27.9396,-96.8429,-2.0,26.2,11111222 
TABS,ioos:station:wmo:42048:1,2017-05-21T12:30:00Z,27.9396,-96.8429,-2.0,26.3,11111222 
TABS,ioos:station:wmo:42048:1,2017-05-21T13:00:00Z,27.9396,-96.8429,-2.0,26.22,11111222 
TABS,ioos:station:wmo:42048:1,2017-05-21T13:30:00Z,27.9396,-96.8429,-2.0,26.18,11111222 
TABS,ioos:station:wmo:42048:1,2017-05-21T14:00:00Z,27.9396,-96.8429,-2.0,26.16,11111222 
TABS,ioos:station:wmo:42048:1,2017-05-21T14:30:00Z,27.9396,-96.8429,-2.0,26.15,11111222 
TABS,ioos:station:wmo:42048:1,2017-05-21T15:00:00Z,27.9396,-96.8429,-2.0,26.15,11111222 
TABS,ioos:station:wmo:42048:1,2017-05-21T15:30:00Z,27.9396,-96.8429,-2.0,26.15,11111222 
TABS,ioos:station:wmo:42048:1,2017-05-21T16:00:00Z,27.9396,-96.8429,-2.0,26.15,11111222 
TABS,ioos:station:wmo:42048:1,2017-05-21T16:30:00Z,27.9396,-96.8429,-2.0,26.18,11111222 
TABS,ioos:station:wmo:42048:1,2017-05-21T17:00:00Z,27.9396,-96.8429,-2.0,26.28,11111222 
TABS,ioos:station:wmo:42048:1,2017-05-21T17:30:00Z,27.9396,-96.8429,-2.0,26.37,11111222 
TABS,ioos:station:wmo:42048:1,2017-05-21T18:00:00Z,27.9396,-96.8429,-2.0,26.44,11111222 
TABS,ioos:station:wmo:42048:1,2017-05-21T18:30:00Z,27.9396,-96.8429,-2.0,26.51,11111222 
TABS,ioos:station:wmo:42048:1,2017-05-21T19:00:00Z,27.9396,-96.8429,-2.0,26.54,11111222 
TABS,ioos:station:wmo:42048:1,2017-05-21T19:30:00Z,27.9396,-96.8429,-2.0,26.55,11111222 
TABS,ioos:station:wmo:42048:1,2017-05-21T20:00:00Z,27.9396,-96.8429,-2.0,26.47,11111222 
TABS,ioos:station:wmo:42048:1,2017-05-21T20:30:00Z,27.9396,-96.8429,-2.0,26.44,11111222 
TABS,ioos:station:wmo:42048:1,2017-05-21T21:00:00Z,27.9396,-96.8429,-2.0,26.51,11111222 
TABS,ioos:station:wmo:42048:1,2017-05-21T21:30:00Z,27.9396,-96.8429,-2.0,26.46,11111222 
TABS,ioos:station:wmo:42048:1,2017-05-21T22:00:00Z,27.9396,-96.8429,-2.0,26.5,11111222 
TABS,ioos:station:wmo:42048:1,2017-05-21T22:30:00Z,27.9396,-96.8429,-2.0,26.48,11111222 
TABS,ioos:station:wmo:42048:1,2017-05-21T23:00:00Z,27.9396,-96.8429,-2.0,26.46,11111222 
TABS,ioos:station:wmo:42048:1,2017-05-21T23:30:00Z,27.9396,-96.8429,-2.0,26.44,11111222 
TABS,ioos:station:wmo:42048:1,2017-05-22T00:00:00Z,27.9396,-96.8429,-2.0,26.45,11111222 
TABS,ioos:station:wmo:42048:1,2017-05-22T00:30:00Z,27.9396,-96.8429,-2.0,26.42,11111222 
TABS,ioos:station:wmo:42048:1,2017-05-22T01:00:00Z,27.9396,-96.8429,-2.0,26.41,11111222 
TABS,ioos:station:wmo:42048:1,2017-05-22T01:30:00Z,27.9396,-96.8429,-2.0,26.39,11111222 
TABS,ioos:station:wmo:42048:1,2017-05-22T02:00:00Z,27.9396,-96.8429,-2.0,26.39,11111222 
TABS,ioos:station:wmo:42048:1,2017-05-22T02:30:00Z,27.9396,-96.8429,-2.0,26.39,11111222 
TABS,ioos:station:wmo:42048:1,2017-05-22T03:00:00Z,27.9396,-96.8429,-2.0,26.36,11111222 
TABS,ioos:station:wmo:42048:1,2017-05-22T03:30:00Z,27.9396,-96.8429,-2.0,26.38,11111222 
TABS,ioos:station:wmo:42048:1,2017-05-22T04:00:00Z,27.9396,-96.8429,-2.0,26.37,11111222 
TABS,ioos:station:wmo:42048:1,2017-05-22T04:30:00Z,27.9396,-96.8429,-2.0,26.39,11111222 
TABS,ioos:station:wmo:42048:1,2017-05-22T05:00:00Z,27.9396,-96.8429,-2.0,26.34,11111222 
TABS,ioos:station:wmo:42048:1,2017-05-22T05:30:00Z,27.9396,-96.8429,-2.0,26.3,11111222 
TABS,ioos:station:wmo:42048:1,2017-05-22T06:00:00Z,27.9396,-96.8429,-2.0,26.25,11111222 
TABS,ioos:station:wmo:42048:1,2017-05-22T06:30:00Z,27.9396,-96.8429,-2.0,26.19,11111222 
TABS,ioos:station:wmo:42048:1,2017-05-22T07:00:00Z,27.9396,-96.8429,-2.0,26.17,11111222 
TABS,ioos:station:wmo:42048:1,2017-05-22T07:30:00Z,27.9396,-96.8429,-2.0,26.18,11111222 
TABS,ioos:station:wmo:42048:1,2017-05-22T08:00:00Z,27.9396,-96.8429,-2.0,26.19,11111222 
TABS,ioos:station:wmo:42048:1,2017-05-22T08:30:00Z,27.9396,-96.8429,-2.0,26.21,11111222 
TABS,ioos:station:wmo:42048:1,2017-05-22T09:00:00Z,27.9396,-96.8429,-2.0,26.23,11111222 
TABS,ioos:station:wmo:42048:1,2017-05-22T09:30:00Z,27.9396,-96.8429,-2.0,26.28,11111222 
TABS,ioos:station:wmo:42048:1,2017-05-22T10:00:00Z,27.9396,-96.8429,-2.0,26.27,11111222 
TABS,ioos:station:wmo:42048:1,2017-05-22T10:30:00Z,27.9396,-96.8429,-2.0,26.28,11111222 
TABS,ioos:station:wmo:42048:1,2017-05-22T11:00:00Z,27.9396,-96.8429,-2.0,26.25,11111222 
TABS,ioos:station:wmo:42048:1,2017-05-22T11:30:00Z,27.9396,-96.8429,-2.0,26.2,11111222 
TABS,ioos:station:wmo:42048:1,2017-05-22T12:00:00Z,27.9396,-96.8429,-2.0,26.17,11111222 
TABS,ioos:station:wmo:42048:1,2017-05-22T12:30:00Z,27.9396,-96.8429,-2.0,26.13,11111222 
TABS,ioos:station:wmo:42048:1,2017-05-22T13:00:00Z,27.9396,-96.8429,-2.0,26.11,11111222 
TABS,ioos:station:wmo:42048:1,2017-05-22T13:30:00Z,27.9396,-96.8429,-2.0,26.12,11111222 
TABS,ioos:station:wmo:42048:1,2017-05-22T14:00:00Z,27.9396,-96.8429,-2.0,26.11,11111222 
TABS,ioos:station:wmo:42048:1,2017-05-22T14:30:00Z,27.9396,-96.8429,-2.0,26.14,11111222 
TABS,ioos:station:wmo:42048:1,2017-05-22T15:00:00Z,27.9396,-96.8429,-2.0,26.17,11111222 
TABS,ioos:station:wmo:42048:1,2017-05-22T15:30:00Z,27.9396,-96.8429,-2.0,26.19,11111222 
TABS,ioos:station:wmo:42048:1,2017-05-22T16:00:00Z,27.9396,-96.8429,-2.0,26.23,11111222 
TABS,ioos:station:wmo:42048:1,2017-05-22T16:30:00Z,27.9396,-96.8429,-2.0,26.26,11111222 
TABS,ioos:station:wmo:42048:1,2017-05-22T17:00:00Z,27.9396,-96.8429,-2.0,26.25,11111222 
TABS,ioos:station:wmo:42048:1,2017-05-22T17:30:00Z,27.9396,-96.8429,-2.0,26.24,11111222 
TABS,ioos:station:wmo:42048:1,2017-05-22T18:00:00Z,27.9396,-96.8429,-2.0,26.27,11111222 
TABS,ioos:station:wmo:42048:1,2017-05-22T18:30:00Z,27.9396,-96.8429,-2.0,26.28,11111222 
TABS,ioos:station:wmo:42048:1,2017-05-22T19:00:00Z,27.9396,-96.8429,-2.0,26.29,11111222 
TABS,ioos:station:wmo:42048:1,2017-05-22T19:30:00Z,27.9396,-96.8429,-2.0,26.31,11111222 
TABS,ioos:station:wmo:42048:1,2017-05-22T20:00:00Z,27.9396,-96.8429,-2.0,26.35,11111222 
TABS,ioos:station:wmo:42048:1,2017-05-22T20:30:00Z,27.9396,-96.8429,-2.0,26.35,11111222 
TABS,ioos:station:wmo:42048:1,2017-05-22T21:00:00Z,27.9396,-96.8429,-2.0,26.34,11111222 
TABS,ioos:station:wmo:42048:1,2017-05-22T21:30:00Z,27.9396,-96.8429,-2.0,26.33,11111222 
TABS,ioos:station:wmo:42048:1,2017-05-22T22:00:00Z,27.9396,-96.8429,-2.0,26.34,11111222 
TABS,ioos:station:wmo:42048:1,2017-05-22T22:30:00Z,27.9396,-96.8429,-2.0,26.37,11111222 
TABS,ioos:station:wmo:42048:1,2017-05-22T23:00:00Z,27.9396,-96.8429,-2.0,26.49,11111222 
TABS,ioos:station:wmo:42048:1,2017-05-22T23:30:00Z,27.9396,-96.8429,-2.0,26.57,11111222 
TABS,ioos:station:wmo:42048:1,2017-05-23T00:00:00Z,27.9396,-96.8429,-2.0,26.6,11111222 
TABS,ioos:station:wmo:42048:1,2017-05-23T00:30:00Z,27.9396,-96.8429,-2.0,26.61,11111222 
TABS,ioos:station:wmo:42048:1,2017-05-23T01:00:00Z,27.9396,-96.8429,-2.0,26.59,11111222 
TABS,ioos:station:wmo:42048:1,2017-05-23T01:30:00Z,27.9396,-96.8429,-2.0,26.48,11111222 
TABS,ioos:station:wmo:42048:1,2017-05-23T02:00:00Z,27.9396,-96.8429,-2.0,26.44,11111222 
TABS,ioos:station:wmo:42048:1,2017-05-23T02:30:00Z,27.9396,-96.8429,-2.0,26.46,11111222 
TABS,ioos:station:wmo:42048:1,2017-05-23T03:00:00Z,27.9396,-96.8429,-2.0,26.54,11111222 
TABS,ioos:station:wmo:42048:1,2017-05-23T03:30:00Z,27.9396,-96.8429,-2.0,26.62,11111222 
TABS,ioos:station:wmo:42048:1,2017-05-23T04:00:00Z,27.9396,-96.8429,-2.0,26.61,11111222 
TABS,ioos:station:wmo:42048:1,2017-05-23T04:30:00Z,27.9396,-96.8429,-2.0,26.58,11111222 
TABS,ioos:station:wmo:42048:1,2017-05-23T05:00:00Z,27.9396,-96.8429,-2.0,26.61,11111222 
TABS,ioos:station:wmo:42048:1,2017-05-23T05:30:00Z,27.9396,-96.8429,-2.0,26.6,11111222 
TABS,ioos:station:wmo:42048:1,2017-05-23T06:00:00Z,27.9396,-96.8429,-2.0,26.59,11111222 
TABS,ioos:station:wmo:42048:1,2017-05-23T06:30:00Z,27.9396,-96.8429,-2.0,26.57,11111222 
TABS,ioos:station:wmo:42048:1,2017-05-23T07:00:00Z,27.9396,-96.8429,-2.0,26.57,11111222 
TABS,ioos:station:wmo:42048:1,2017-05-23T07:30:00Z,27.9396,-96.8429,-2.0,26.55,11111222 
TABS,ioos:station:wmo:42048:1,2017-05-23T08:00:00Z,27.9396,-96.8429,-2.0,26.53,11111222 
TABS,ioos:station:wmo:42048:1,2017-05-23T08:30:00Z,27.9396,-96.8429,-2.0,26.49,11111222 
TABS,ioos:station:wmo:42048:1,2017-05-23T09:00:00Z,27.9396,-96.8429,-2.0,26.45,11111222 
TABS,ioos:station:wmo:42048:1,2017-05-23T09:30:00Z,27.9396,-96.8429,-2.0,26.42,11111222 
TABS,ioos:station:wmo:42048:1,2017-05-23T10:00:00Z,27.9396,-96.8429,-2.0,26.35,11111222 
TABS,ioos:station:wmo:42048:1,2017-05-23T10:30:00Z,27.9396,-96.8429,-2.0,26.32,11111222 
TABS,ioos:station:wmo:42048:1,2017-05-23T11:00:00Z,27.9396,-96.8429,-2.0,26.28,11111222 
TABS,ioos:station:wmo:42048:1,2017-05-23T11:30:00Z,27.9396,-96.8429,-2.0,26.25,11111222 
TABS,ioos:station:wmo:42048:1,2017-05-23T12:00:00Z,27.9396,-96.8429,-2.0,26.23,11111222 
TABS,ioos:station:wmo:42048:1,2017-05-23T12:30:00Z,27.9396,-96.8429,-2.0,26.22,11111222 
TABS,ioos:station:wmo:42048:1,2017-05-23T13:00:00Z,27.9396,-96.8429,-2.0,26.22,11111222 
TABS,ioos:station:wmo:42048:1,2017-05-23T13:30:00Z,27.9396,-96.8429,-2.0,26.25,11111222 
TABS,ioos:station:wmo:42048:1,2017-05-23T14:00:00Z,27.9396,-96.8429,-2.0,26.29,11111222 
TABS,ioos:station:wmo:42048:1,2017-05-23T14:30:00Z,27.9396,-96.8429,-2.0,26.32,11111222 
TABS,ioos:station:wmo:42048:1,2017-05-23T15:00:00Z,27.9396,-96.8429,-2.0,26.34,11111222 
TABS,ioos:station:wmo:42048:1,2017-05-23T15:30:00Z,27.9396,-96.8429,-2.0,26.35,11111222 
TABS,ioos:station:wmo:42048:1,2017-05-23T16:00:00Z,27.9396,-96.8429,-2.0,26.42,11111222 
TABS,ioos:station:wmo:42048:1,2017-05-23T16:30:00Z,27.9396,-96.8429,-2.0,26.47,11111222 
TABS,ioos:station:wmo:42048:1,2017-05-23T17:00:00Z,27.9396,-96.8429,-2.0,26.52,11111222 
TABS,ioos:station:wmo:42048:1,2017-05-23T17:30:00Z,27.9396,-96.8429,-2.0,26.6,11111222 
TABS,ioos:station:wmo:42048:1,2017-05-23T18:00:00Z,27.9396,-96.8429,-2.0,26.67,11111222 
TABS,ioos:station:wmo:42048:1,2017-05-23T18:30:00Z,27.9396,-96.8429,-2.0,26.71,11111222 
TABS,ioos:station:wmo:42048:1,2017-05-23T19:00:00Z,27.9396,-96.8429,-2.0,26.7,11111222 
TABS,ioos:station:wmo:42048:1,2017-05-23T19:30:00Z,27.9396,-96.8429,-2.0,26.69,11111222 
TABS,ioos:station:wmo:42048:1,2017-05-23T20:00:00Z,27.9396,-96.8429,-2.0,26.68,11111222 
TABS,ioos:station:wmo:42048:1,2017-05-23T20:30:00Z,27.9396,-96.8429,-2.0,26.78,11111222 
TABS,ioos:station:wmo:42048:1,2017-05-23T21:00:00Z,27.9396,-96.8429,-2.0,26.7,11111222 
TABS,ioos:station:wmo:42048:1,2017-05-23T21:30:00Z,27.9396,-96.8429,-2.0,26.78,11111222 
TABS,ioos:station:wmo:42048:1,2017-05-23T22:00:00Z,27.9396,-96.8429,-2.0,26.84,11111222 
TABS,ioos:station:wmo:42048:1,2017-05-23T22:30:00Z,27.9396,-96.8429,-2.0,26.63,11111222 
TABS,ioos:station:wmo:42048:1,2017-05-23T23:00:00Z,27.9396,-96.8429,-2.0,26.83,11111222 
TABS,ioos:station:wmo:42048:1,2017-05-23T23:30:00Z,27.9396,-96.8429,-2.0,26.83,11111222 
TABS,ioos:station:wmo:42048:1,2017-05-24T00:00:00Z,27.9396,-96.8429,-2.0,26.85,11111222 
TABS,ioos:station:wmo:42048:1,2017-05-24T00:30:00Z,27.9396,-96.8429,-2.0,26.88,11111222 
TABS,ioos:station:wmo:42048:1,2017-05-24T01:00:00Z,27.9396,-96.8429,-2.0,26.84,11111222 
TABS,ioos:station:wmo:42048:1,2017-05-24T01:30:00Z,27.9396,-96.8429,-2.0,26.81,11111222 
TABS,ioos:station:wmo:42048:1,2017-05-24T02:00:00Z,27.9396,-96.8429,-2.0,26.71,11111222 
TABS,ioos:station:wmo:42048:1,2017-05-24T02:30:00Z,27.9396,-96.8429,-2.0,26.72,11111222 
TABS,ioos:station:wmo:42048:1,2017-05-24T03:00:00Z,27.9396,-96.8429,-2.0,26.78,11111222 
TABS,ioos:station:wmo:42048:1,2017-05-24T03:30:00Z,27.9396,-96.8429,-2.0,26.71,11111222 
TABS,ioos:station:wmo:42048:1,2017-05-24T04:00:00Z,27.9396,-96.8429,-2.0,26.58,11111222 
TABS,ioos:station:wmo:42048:1,2017-05-24T04:30:00Z,27.9396,-96.8429,-2.0,26.52,11111222 
TABS,ioos:station:wmo:42048:1,2017-05-24T05:00:00Z,27.9396,-96.8429,-2.0,26.5,11111222 
TABS,ioos:station:wmo:42048:1,2017-05-24T05:30:00Z,27.9396,-96.8429,-2.0,26.54,11111222 
TABS,ioos:station:wmo:42048:1,2017-05-24T06:00:00Z,27.9396,-96.8429,-2.0,26.43,11111222 
TABS,ioos:station:wmo:42048:1,2017-05-24T06:30:00Z,27.9396,-96.8429,-2.0,26.28,11111222 
TABS,ioos:station:wmo:42048:1,2017-05-24T07:00:00Z,27.9396,-96.8429,-2.0,26.21,11111222 
TABS,ioos:station:wmo:42048:1,2017-05-24T07:30:00Z,27.9396,-96.8429,-2.0,26.17,11111222 
TABS,ioos:station:wmo:42048:1,2017-05-24T08:00:00Z,27.9396,-96.8429,-2.0,26.11,11111222 
TABS,ioos:station:wmo:42048:1,2017-05-24T08:30:00Z,27.9396,-96.8429,-2.0,26.07,11111222 
TABS,ioos:station:wmo:42048:1,2017-05-24T09:00:00Z,27.9396,-96.8429,-2.0,26.04,11111222 
TABS,ioos:station:wmo:42048:1,2017-05-24T09:30:00Z,27.9396,-96.8429,-2.0,26.06,11111222 
TABS,ioos:station:wmo:42048:1,2017-05-24T10:00:00Z,27.9396,-96.8429,-2.0,26.03,11111222 
TABS,ioos:station:wmo:42048:1,2017-05-24T10:30:00Z,27.9396,-96.8429,-2.0,25.97,11111222 
TABS,ioos:station:wmo:42048:1,2017-05-24T11:00:00Z,27.9396,-96.8429,-2.0,25.92,11111222 
TABS,ioos:station:wmo:42048:1,2017-05-24T11:30:00Z,27.9396,-96.8429,-2.0,25.9,11111222 
TABS,ioos:station:wmo:42048:1,2017-05-24T12:00:00Z,27.9396,-96.8429,-2.0,25.9,11111222 
TABS,ioos:station:wmo:42048:1,2017-05-24T12:30:00Z,27.9396,-96.8429,-2.0,25.9,11111222 
TABS,ioos:station:wmo:42048:1,2017-05-24T13:00:00Z,27.9396,-96.8429,-2.0,25.88,11111222 
TABS,ioos:station:wmo:42048:1,2017-05-24T13:30:00Z,27.9396,-96.8429,-2.0,25.86,11111222 
TABS,ioos:station:wmo:42048:1,2017-05-24T14:00:00Z,27.9396,-96.8429,-2.0,25.85,11111222 
TABS,ioos:station:wmo:42048:1,2017-05-24T14:30:00Z,27.9396,-96.8429,-2.0,25.84,11111222 
TABS,ioos:station:wmo:42048:1,2017-05-24T15:00:00Z,27.9396,-96.8429,-2.0,25.84,11111222 
TABS,ioos:station:wmo:42048:1,2017-05-24T15:30:00Z,27.9396,-96.8429,-2.0,25.85,11111222 
TABS,ioos:station:wmo:42048:1,2017-05-24T16:00:00Z,27.9396,-96.8429,-2.0,25.87,11111222 
TABS,ioos:station:wmo:42048:1,2017-05-24T16:30:00Z,27.9396,-96.8429,-2.0,25.91,11111222 
TABS,ioos:station:wmo:42048:1,2017-05-24T17:00:00Z,27.9396,-96.8429,-2.0,25.95,11111222 
TABS,ioos:station:wmo:42048:1,2017-05-24T17:30:00Z,27.9396,-96.8429,-2.0,26.01,11111222 
TABS,ioos:station:wmo:42048:1,2017-05-24T18:00:00Z,27.9396,-96.8429,-2.0,26.09,11111222 
TABS,ioos:station:wmo:42048:1,2017-05-24T18:30:00Z,27.9396,-96.8429,-2.0,26.16,11111222 
TABS,ioos:station:wmo:42048:1,2017-05-24T19:00:00Z,27.9396,-96.8429,-2.0,26.24,11111222 
TABS,ioos:station:wmo:42048:1,2017-05-24T19:30:00Z,27.9396,-96.8429,-2.0,26.32,11111222 
TABS,ioos:station:wmo:42048:1,2017-05-24T20:00:00Z,27.9396,-96.8429,-2.0,26.42,11111222 
TABS,ioos:station:wmo:42048:1,2017-05-24T20:30:00Z,27.9396,-96.8429,-2.0,26.51,11111222 
TABS,ioos:station:wmo:42048:1,2017-05-24T21:00:00Z,27.9396,-96.8429,-2.0,26.53,11111222 
TABS,ioos:station:wmo:42048:1,2017-05-24T21:30:00Z,27.9396,-96.8429,-2.0,26.55,11111222 
TABS,ioos:station:wmo:42048:1,2017-05-24T22:00:00Z,27.9396,-96.8429,-2.0,26.57,11111222 
TABS,ioos:station:wmo:42048:1,2017-05-24T22:30:00Z,27.9396,-96.8429,-2.0,26.61,11111222 
TABS,ioos:station:wmo:42048:1,2017-05-24T23:00:00Z,27.9396,-96.8429,-2.0,26.65,11111222 
TABS,ioos:station:wmo:42048:1,2017-05-24T23:30:00Z,27.9396,-96.8429,-2.0,26.67,11111222 
TABS,ioos:station:wmo:42048:1,2017-05-25T00:00:00Z,27.9396,-96.8429,-2.0,26.65,11111222 
TABS,ioos:station:wmo:42048:1,2017-05-25T00:30:00Z,27.9396,-96.8429,-2.0,26.59,11111222 
TABS,ioos:station:wmo:42048:1,2017-05-25T01:00:00Z,27.9396,-96.8429,-2.0,26.54,11111222 
TABS,ioos:station:wmo:42048:1,2017-05-25T01:30:00Z,27.9396,-96.8429,-2.0,26.44,11111222 
TABS,ioos:station:wmo:42048:1,2017-05-25T02:00:00Z,27.9396,-96.8429,-2.0,26.39,11111222 
TABS,ioos:station:wmo:42048:1,2017-05-25T02:30:00Z,27.9396,-96.8429,-2.0,26.32,11111222 
TABS,ioos:station:wmo:42048:1,2017-05-25T03:00:00Z,27.9396,-96.8429,-2.0,26.26,11111222 
TABS,ioos:station:wmo:42048:1,2017-05-25T03:30:00Z,27.9396,-96.8429,-2.0,26.18,11111222 
TABS,ioos:station:wmo:42048:1,2017-05-25T04:00:00Z,27.9396,-96.8429,-2.0,26.14,11111222 
TABS,ioos:station:wmo:42048:1,2017-05-25T04:30:00Z,27.9396,-96.8429,-2.0,26.1,11111222 
TABS,ioos:station:wmo:42048:1,2017-05-25T05:00:00Z,27.9396,-96.8429,-2.0,26.08,11111222 
TABS,ioos:station:wmo:42048:1,2017-05-25T05:30:00Z,27.9396,-96.8429,-2.0,26.05,11111222 
TABS,ioos:station:wmo:42048:1,2017-05-25T06:00:00Z,27.9396,-96.8429,-2.0,26.02,11111222 
TABS,ioos:station:wmo:42048:1,2017-05-25T06:30:00Z,27.9396,-96.8429,-2.0,26.0,11111222 
TABS,ioos:station:wmo:42048:1,2017-05-25T07:00:00Z,27.9396,-96.8429,-2.0,26.0,11111222 
TABS,ioos:station:wmo:42048:1,2017-05-25T07:30:00Z,27.9396,-96.8429,-2.0,26.01,11111222 
TABS,ioos:station:wmo:42048:1,2017-05-25T08:00:00Z,27.9396,-96.8429,-2.0,26.03,11111222 